www.pogodaiklimat.ru
ПОГОДА в Вашингтоне
Время
и дата
02:15 23.05
02:35 23.05
02:55 23.05
03:15 23.05
03:35 23.05
03:55 23.05
04:15 23.05
04:35 23.05
04:55 23.05
05:15 23.05
05:35 23.05
05:55 23.05
06:15 23.05
06:35 23.05
06:55 23.05
07:15 23.05
07:35 23.05
07:55 23.05
08:15 23.05
08:35 23.05
08:55 23.05
09:15 23.05
09:35 23.05
09:55 23.05
10:15 23.05
10:55 23.05
11:15 23.05
11:35 23.05
11:55 23.05
12:15 23.05
12:35 23.05
12:55 23.05
13:15 23.05
13:35 23.05
13:55 23.05
14:15 23.05
14:35 23.05
14:55 23.05
15:15 23.05
15:35 23.05
15:55 23.05
16:15 23.05
16:35 23.05
16:55 23.05
17:15 23.05
17:35 23.05
17:55 23.05
18:15 23.05
Ветер
(напр.,м/с)
Видим. Явления Облачность Т
(С)
Тd
(С)
f
(%)
Тe
(С)
Тes
(С)
Комфортность P
(гПа)
Po
(гПа)
Тmin
(С)
Tmax
(С)
R
(мм)
R24
(мм)
S
(см)
С 1 16 км ясно +9.0 +9.0 100 +7 +7 1024.1
С 1 16 км ясно +9.0 +9.0 100 +7 +7 1024.1
штиль 0 16 км ясно +10.0 +10.0 100 +9 +9 1024.1
штиль 0 16 км ясно +9.0 +9.0 100 +8 +8 1024.4
штиль 0 16 км ясно +8.0 +8.0 100 +7 +7 1024.4
штиль 0 16 км ясно +8.0 +8.0 100 +7 +7 1024.4
штиль 0 16 км ясно +8.0 +8.0 100 +7 +7 1024.1
штиль 0 16 км ясно +8.0 +8.0 100 +7 +7 1024.1
штиль 0 16 км ясно +7.0 +7.0 100 +6 +6 1024.4
штиль 0 16 км н/о +8.0 +8.0 100 +7 +7 1024.8
штиль 0 16 км н/о +8.0 +8.0 100 +7 +7 1024.8
штиль 0 16 км ясно +8.0 +8.0 100 +7 +8 1024.8
штиль 0 16 км ясно +9.0 +9.0 100 +8 +13 1024.8
штиль 0 16 км ясно +10.0 +10.0 100 +9 +14 1024.8
штиль 0 16 км ясно +12.0 +9.0 82 +11 +16 1024.8
нст 1 16 км ясно +14.0 +9.0 72 +13 +19 1024.8
нст 1
{3}
16 км ясно +14.0 +9.0 72 +14 +21 1024.8
В 2 16 км ясно +15.0 +8.0 63 +14 +19 1024.8
СВ 2
{3}
16 км ясно +15.0 +8.0 63 +14 +22 1024.8
В 1
{3}
16 км ясно +16.0 +8.0 59 +16 +25 1024.4
В 2
{4}
16 км ясно +16.0 +6.0 51 +15 +21 1024.4
нст 1
{3}
16 км ясно +16.0 +7.0 55 +16 +29 опасность
простуды
1024.4
нст 1
{3}
16 км ясно +17.0 +6.0 48 +17 +30 опасность
простуды
1024.1
СВ 2 16 км ясно +17.0 +6.0 48 +17 +27 1024.1
В 2
{3}
16 км ясно +17.0 +7.0 52 +17 +29 опасность
простуды
1023.4
В 2
{3}
16 км ясно +18.0 +7.0 49 +18 +31 опасность
простуды
1022.7
СВ 2
{3}
16 км ясно +18.0 +6.0 45 +18 +32 опасность
простуды
1022.7
нст 1
{3}
16 км ясно +19.0 +7.0 46 +20 +37 опасность
простуды
1022.4
В 2 16 км ясно +19.0 +7.0 46 +19 +30 1022.1
В 2 16 км ясно +19.0 +7.0 46 +19 +33 опасность
простуды
1021.7
нст 1 16 км ясно +19.0 +7.0 46 +20 +36 опасность
простуды
1021.7
нст 1 16 км ясно +19.0 +7.0 46 +20 +36 опасность
простуды
1021.7
нст 1
{3}
16 км ясно +19.0 +8.0 49 +20 +34 опасность
простуды
1021.4
В 2 16 км ясно +19.0 +7.0 46 +19 +31 опасность
простуды
1021.7
нст 1 16 км ясно +19.0 +7.0 46 +20 +37 опасность
простуды
1021.4
штиль 0 16 км ясно +19.0 +7.0 46 +19 +37 опасность
простуды
1021.4
нст 1 16 км ясно +19.0 +7.0 46 +20 +30 1021.4
В 1
{3}
16 км ясно +20.0 +7.0 43 +21 +32 комфорт 1021.0
нст 1 16 км ясно +19.0 +8.0 49 +20 +28 1021.0
В 2 16 км ясно +19.0 +8.0 49 +20 +25 1020.7
нст 1 16 км ясно +19.0 +7.0 46 +20 +27 1020.7
штиль 0 16 км ясно +19.0 +8.0 49 +19 +25 1020.7
штиль 0 16 км ясно +19.0 +8.0 49 +19 +25 1020.4
штиль 0 16 км ясно +19.0 +8.0 49 +19 +25 1020.4
В 1 16 км ясно +19.0 +8.0 49 +20 +21 1020.0
нст 1 16 км ясно +18.0 +8.0 52 +19 +20 1018.7
штиль 0 16 км ясно +18.0 +8.0 52 +18 +20 1018.7
штиль 0 16 км ясно +18.0 +8.0 52 +18 +18 1018.7
Местоположение метеостанции Washington Regional Airport: широта 37.5200 долгота -76.7600 высота над уровнем моря 7 м.
В архиве по умолчанию представлена погода в Вашингтоне за последние 1-2 суток. Обновление информации о фактической погоде в базе происходит ежечасно! Архивные данные за месяц целиком и за предыдущие месяцы Вы можете получить, выбрав интересующий диапазон дат из раскрывающегося списка и нажав кнопку "Ввод!".
Внимание! Архив погоды МЕТАР в базе сайта по станциям, не включенным в климатический монитор, хранится не более 60 дней. Нет смысла пытаться выбрать более раннюю дату.
*Определитесь, кто Вы:
Внимание! Время в таблицах - местное (без учета летнего времени). Для получения всемирного времени необходимо вычесть поправку, которая равна -6 ч.
Смотрите также архив погоды в соседних городах и на ближайших метеорологических станциях:
Партнеры нашего сайта:      
Пояснения к столбцам:
  • Ветер - указаны скорость ветра в м/с - средняя за 10 мин, порывы в срок и между сроками (в фигурных скобках) и направление, откуда дует ветер: С - северный,
  • СВ - северо-восточный, В - восточный, ЮВ - юго-восточный, Ю - южный, ЮЗ - юго-западный, З - западный, СЗ - северо-западный.
  • Видимость - горизонтальная дальность видимости в метрах или километрах. При видимости от 1 до 10 км при отсутствии осадков обычно наблюдается дымка, при ухудшении видимости до 1 км и менее - туман. В сухую погоду видимость может ухудшаться дымом, пылью или мглою.
  • Явления - указаны атмосферные явления, наблюдавшиеся в срок или в последний час перед сроком; фигурными скобками обозначены явления, наблюдавшиеся между сроками (за 1-3 часа до срока); квадратными скобками обозначены град или гололедные отложения с указанием их диаметра в мм.
  • Облачность - указаны через наклонную черту общая и нижняя облачность в баллах и высота нижней границы облаков в метрах; квадратными скобками обозначены формы облаков: Ci - перистые, Cs - перисто-слоистые, Cc - перисто-кучевые, Ac - высококучевые, As - высокослоистые, Sc - слоисто-кучевые, Ns - слоисто-дождевые, Cu - кучевые, Cb - кучево-дождевые. Подробнее классификацию облаков см. в Атласе облаков (PDF).
  • T - Температура воздуха - температура, измеренная на высоте 2 м над землей.
  • Td - Температура точки росы - температура, при понижении до которой содержащийся в воздухе водяной пар достигнет насыщения.
  • f - Относительная влажность воздуха - влажноcть воздуха, измеренная на высоте 2 м над землей.
  • Te - Эффективная температура - температура, которую ощущает одетый по сезону человек в тени. Характеристика душности погоды. При расчете учитывается влияние влажности воздуха и скорости ветра на теплоощущения человека.
  • Tes - Эффективная температура на солнце - температура, которую ощущает человек, с поправкой на солнечный нагрев. Характеристика знойности погоды. Зависит от высоты солнца над горизонтом, облачности и скорости ветра. Ночью, в пасмурную погоду, а также при ветре 12 м/с и более поправка равна нулю.
  • P - Атмосферное давление - приведенное к уровню моря атмосферное давление.
  • Po - Атмосферное давление - измеренное на уровне метеостанции атмосферное давление.
  • Tmin - Минимальная температура - минимум температуры воздуха на высоте 2 м над землей.
  • Tmax - Максимальная температура - максимум температуры воздуха на высоте 2 м над землей.
  • R - Количество осадков - Количество выпавших осадков за период времени, мм. При наведении курсора мыши на число - период времени, за который выпало указанное количество осадков.
  • R24 - Количество осадков - Количество выпавших осадков за 24 часа, мм.
  • S - Снежный покров - Высота снежного покрова, см. При наведении курсора мыши на число - состояние снежного покрова и степень покрытия местности в баллах.